Location: Joffre
(52.3362°N, 113.5373°W)
Time: 12:18:18
(UTC+00:00)

N. Korean satellite - Pass Details

Date: 08 December 2021
Orbit: 447 x 490 km, 97.3° (Epoch: 27 January)

Event Time Altitude Azimuth Distance (km) Brightness Sun altitude
Rises 00:59:17 0° 209° (SSW) 2,512 11.0 -13.9°
Reaches altitude 10° 01:02:04 10° 233° (SW) 1,630 10.4 -14.3°
Maximum altitude 01:04:08 15° 270° (W) 1,351 9.9 -14.6°
Drops below altitude 10° 01:06:12 10° 306° (NW) 1,622 9.7 -14.9°
Sets 01:08:58 0° 331° (NNW) 2,494 10.3 -15.3°
